www.pogodaiklimat.ru
Время
(UTC), дата
09 4.12
12 4.12
15 4.12
18 4.12
21 4.12
00 5.12
03 5.12
06 5.12
09 5.12
12 5.12
15 5.12
18 5.12
21 5.12
00 6.12
03 6.12
06 6.12
09 6.12
12 6.12
15 6.12
18 6.12
21 6.12
00 7.12
03 7.12
06 7.12
09 7.12
12 7.12
15 7.12
18 7.12
21 7.12
00 8.12
03 8.12
06 8.12
09 8.12
12 8.12
15 8.12
18 8.12
21 8.12
00 9.12
03 9.12
06 9.12
09 9.12
12 9.12
15 9.12
18 9.12
21 9.12
00 10.12
03 10.12
06 10.12
09 10.12
12 10.12
15 10.12
18 10.12
21 10.12
00 11.12
03 11.12
Ветер
(напр.,м/с)
Видим. Явления Облачность Т
(С)
Тd
(С)
f
(%)
Тe
(С)
Тes
(С)
Комфортность P
(гПа)
Po
(гПа)
Тmin
(С)
Tmax
(С)
R
(мм)
R24
(мм)
S
(см)
Ю 1 20 км {ливн. осадки} 10/4 300 м
[Sc Ci fib]
-14.4 -16.4 85 -17 -17 1022.2 1017.5
Ю 1 20 км {ливн. осадки} 10/0
[Ac trans Ci fib]
-14.9 -16.9 85 -17 -17 1023.5 1018.8
ЮВ 2 20 км ясно -17.4 -19.3 85 -23 -23 1024.0 1019.3 -12.0 0.2
ЮВ 1 20 км 10/0
[Ac As]
-15.3 -17.3 85 -18 -18 1024.3 1019.7
ЮВ 2 20 км 10/0
[Ac As]
-15.1 -17.0 85 -20 -20 1024.2 1019.5
ЮВ 1 20 км 10/0
[Ac As]
-15.1 -17.0 85 -18 -18 1022.7 1018.0
ЮВ 2 20 км 10/0
[Ac As]
-14.2 -16.2 85 -19 -19 1020.3 1015.6 -17.4 47
ЮВ 2 10 км снежные кристаллы 10/4 600 м
[Sc Ac As]
-14.3 -16.3 85 -19 -19 1018.1 1013.5
ЮВ 2 4000 м слаб. ливневой снег 10/10 360 м
[Cb cap Ac As]
-13.3 -15.3 85 -18 -18 1014.6 1010.0
ЮВ 3 2000 м ливневой снег 10/10 240 м
[Cb cap]
-11.0 -12.7 87 -17 -17 1009.6 1005.0
ЮВ 3 2000 м ливневой снег 10/10 210 м
[Cb cap]
-9.7 -11.3 88 -16 -16 1004.6 1000.1 -9.7 5
ЮВ 3 4000 м слаб. ливневой снег 10/10 210 м
[Cb cap]
-7.8 -9.1 90 -14 -14 1000.2 995.8
ЮВ 3 4000 м слаб. ливневой снег 10/10 400 м
[Cb cap]
-5.7 -6.7 93 -11 -11 996.8 992.4
Ю 2 4000 м слаб. ливневой снег 10/10 400 м
[Cb cap]
-4.3 -5.2 93 -9 -9 994.0 989.7
З 4 20 км в посл. час ливневой снег 10/10 540 м
[Cb cap]
-4.6 -6.3 88 -11 -11 993.7 989.3 -9.7 6 53
ЮЗ 1 50 км {ливн. осадки} 10/4 300 м
[Cb cap Ci fib]
-9.3 -11.2 86 -12 -12 995.1 990.7
ЮЗ 3 20 км {ливн. осадки} 8/4 300 м
[Cb cap Ci fib]
-11.2 -14.2 78 -17 -17 996.7 992.2
Ю 2 20 км {ливн. осадки} ясно -14.5 -16.7 83 -19 -19 997.9 993.3
Ю 2 20 км ясно -16.9 -18.7 86 -22 -22 998.3 993.7 -4.6 0.0
ЮВ 2 20 км 10/0
[Ci fib]
-16.2 -18.2 85 -21 -21 998.4 993.8
ЮВ 3 20 км 10/0
[Ci fib]
-14.7 -16.8 84 -21 -21 997.3 992.8
ЮВ 3 20 км 10/0
[Ac trans Ci sp]
-13.6 -15.9 83 -20 -20 995.4 990.9
ЮВ 3 4000 м слаб. ливневой снег 10/6 360 м
[Cb cap Ac As]
-12.3 -14.3 85 -18 -18 994.2 989.7 -17.2 0.0 53
ЮВ 3 4000 м слаб. ливневой снег 10/8 360 м
[Cb cap Ac As]
-9.9 -12.0 85 -16 -16 993.0 988.5
Ю 3 4000 м слаб. ливневой снег 10/8 330 м
[Cb cap Ac As]
-9.0 -11.1 85 -15 -15 992.4 987.9
Ю 2 4000 м слаб. ливневой снег 10/8 400 м
[Cb cap Ac As]
-8.7 -10.7 85 -13 -13 992.5 988.1
Ю 2 4000 м слаб. ливневой снег 10/10 270 м
[Cb cap]
-8.6 -10.1 89 -13 -13 992.8 988.4 -8.6 1
З 3 4000 м слаб. ливневой снег 10/10 330 м
[Cb cap]
-8.0 -9.8 87 -14 -14 994.6 990.2
З 2 4000 м слаб. ливневой снег 6/6 300 м
[Cb cap]
-15.2 -17.2 85 -20 -20 998.9 994.3
З 2 20 км {ливн. осадки} ясно -20.7 -23.0 82 -27 -27 1002.5 997.8
ЮЗ 1 н/о н/о -24.8 -27.5 78 -28 -28 1006.2 1001.4 -24.8
З 1 50 км {ливн. осадки} ясно -25.7 -28.7 76 -29 -29 1010.4 1005.6 -25.7
ЮЗ 1 20 км 10/0
[Ci sp]
-27.6 -30.8 74 -31 -31 опасность
обморожения
1014.4 1009.6
ЮЗ 1 20 км 10/0
[Ci fib]
-29.4 -32.7 73 -33 -33 опасность
обморожения
1017.6 1012.7
штиль 0 20 км ясно -30.3 -33.7 72 -30 -30 1020.1 1015.2 -24.8
ЮЗ 1 20 км ясно -34.6 -38.5 67 -39 -39 опасность
обморожения
1021.9 1016.9
штиль 0 20 км ясно -33.8 -37.7 68 -34 -34 опасность
обморожения
1022.8 1017.8
ЮВ 2 20 км ясно -28.4 -31.6 74 -36 -36 опасность
обморожения
1021.8 1016.8
ЮВ 2 20 км 10/0
[Ac trans Ci fib]
-24.6 -27.5 77 -31 -31 опасность
обморожения
1019.1 1014.2 -34.8 53
ЮВ 3 4000 м слаб. ливневой снег 10/10 360 м
[Cb cap]
-18.2 -20.6 81 -25 -25 1015.5 1010.8
ЮВ 4 4000 м слаб. ливневой снег 10/10 330 м
[Cb cap]
-13.6 -15.6 85 -21 -21 1011.4 1006.9
ЮВ 3 4000 м слаб. ливневой снег 10/10 210 м
[Cb cap]
-11.3 -12.7 89 -17 -17 1008.2 1003.7
Ю 4 20 км {ливн. осадки} 10/10 240 м
[Cb cap]
-8.6 -9.6 92 -16 -16 1004.9 1000.5 -8.6 1
Ю 2 4000 м слаб. ливневой снег [диам. отлож. мокр. снега 3 мм] 10/10 210 м
[Cb cap]
-5.8 -6.6 94 -10 -10 1002.6 998.1
ЮЗ 2 4000 м слаб. ливневой снег [диам. отлож. мокр. снега 3 мм] 10/10 240 м
[Cb cap]
-2.0 -2.7 95 -6 -6 1003.2 998.8
ЮЗ 3 4000 м слаб. ливневой снег [диам. сложн. отлож. 4 мм] 10/10 270 м
[Cb cap]
-0.7 -1.5 94 -6 -6 1004.1 999.8
ЮЗ 3 20 км {ливн. осадки} [диам. гололёда 3 мм] 10/6 300 м
[Cb cap Ac trans]
-0.6 -1.8 92 -6 -6 1005.6 1001.3 -8.6 3 55
ЮЗ 2 50 км {ливн. осадки} [диам. гололёда 2 мм] 10/4 600 м
[Cb cap Ac trans]
-1.0 -2.5 90 -5 -5 1005.9 1001.5
Ю 3 20 км [диам. гололёда 2 мм] 10/10 450 м
[Cb cap]
-1.1 -2.8 88 -6 -6 1004.7 1000.3
Ю 3 20 км {ливн. осадки} [диам. гололёда 1 мм] 10/10 480 м
[Cb cap]
-1.4 -2.8 90 -6 -6 1002.6 998.2
Ю 3 4000 м слаб. ливневой снег 10/10 360 м
[Cb cap]
-1.6 -2.7 92 -7 -7 999.7 995.4 -0.6 0.3
Ю 3 4000 м слаб. ливневой снег 10/10 400 м
[Cb cap]
-1.5 -2.7 92 -7 -7 998.2 993.9
ЮЗ 3 20 км {ливн. осадки} 10/10 400 м
[Cb cap]
-1.2 -2.1 94 -6 -6 997.8 993.5
ЮЗ 2 4000 м слаб. ливневой снег 10/10 360 м
[Cb cap]
-1.0 -1.9 94 -5 -5 997.4 993.1
ЮЗ 3 4000 м слаб. ливневой снег [диам. гололёда 1 мм] 10/10 210 м
[Cb cap]
-0.7 -1.5 94 -6 -6 997.0 992.7 -1.8 1 55
Местоположение метеостанции Толька (Ямало-Ненецкий АО, Россия): широта 63.98 долгота 82.08 высота над уровнем моря 35 м.
В архиве по умолчанию представлена погода в Тольке за последнюю неделю. Архивные данные за месяц целиком и за предыдущие месяцы, начиная с января 2011 года, Вы можете получить, выбрав интересующий диапазон дат из раскрывающегося списка и нажав кнопку "Найти!".
*Определитесь, кто Вы:
Внимание! Время в таблицах - всемирное. Для получения местного времени необходимо прибавить поправку, которая равна 5 ч.
Смотрите также архив погоды в соседних городах и на ближайших метеорологических станциях:
Партнеры нашего сайта:      
Пояснения к столбцам:
  • Ветер - указаны скорость ветра в м/с - средняя за 10 мин, порывы в срок и между сроками (в фигурных скобках) и направление, откуда дует ветер: С - северный,
  • СВ - северо-восточный, В - восточный, ЮВ - юго-восточный, Ю - южный, ЮЗ - юго-западный, З - западный, СЗ - северо-западный.
  • Видимость - горизонтальная дальность видимости в метрах или километрах. При видимости от 1 до 10 км при отсутствии осадков обычно наблюдается дымка, при ухудшении видимости до 1 км и менее - туман. В сухую погоду видимость может ухудшаться дымом, пылью или мглою.
  • Явления - указаны атмосферные явления, наблюдавшиеся в срок или в последний час перед сроком; фигурными скобками обозначены явления, наблюдавшиеся между сроками (за 1-3 часа до срока); квадратными скобками обозначены град или гололедные отложения с указанием их диаметра в мм.
  • Облачность - указаны через наклонную черту общая и нижняя облачность в баллах и высота нижней границы облаков в метрах; квадратными скобками обозначены формы облаков: Ci - перистые, Cs - перисто-слоистые, Cc - перисто-кучевые, Ac - высококучевые, As - высокослоистые, Sc - слоисто-кучевые, Ns - слоисто-дождевые, Cu - кучевые, Cb - кучево-дождевые. Подробнее классификацию облаков см. в Атласе облаков (PDF).
  • T - Температура воздуха - температура, измеренная на высоте 2 м над землей.
  • Td - Температура точки росы - температура, при понижении до которой содержащийся в воздухе водяной пар достигнет насыщения.
  • f - Относительная влажность воздуха - влажноcть воздуха, измеренная на высоте 2 м над землей.
  • Te - Эффективная температура - температура, которую ощущает одетый по сезону человек в тени. Характеристика душности погоды. При расчете учитывается влияние влажности воздуха и скорости ветра на теплоощущения человека.
  • Tes - Эффективная температура на солнце - температура, которую ощущает человек, с поправкой на солнечный нагрев. Характеристика знойности погоды. Зависит от высоты солнца над горизонтом, облачности и скорости ветра. Ночью, в пасмурную погоду, а также при ветре 12 м/с и более поправка равна нулю.
  • P - Атмосферное давление - приведенное к уровню моря атмосферное давление.
  • Po - Атмосферное давление - измеренное на уровне метеостанции атмосферное давление.
  • Tmin - Минимальная температура - минимум температуры воздуха на высоте 2 м над землей.
  • Tmax - Максимальная температура - максимум температуры воздуха на высоте 2 м над землей.
  • R - Количество осадков - Количество выпавших осадков за период времени, мм. При наведении курсора мыши на число - период времени, за который выпало указанное количество осадков.
  • R24 - Количество осадков - Количество выпавших осадков за 24 часа, мм.
  • S - Снежный покров - Высота снежного покрова, см. При наведении курсора мыши на число - состояние снежного покрова и степень покрытия местности в баллах.